Regional Weather Roundup
Issued by NWS Portland, ME

Home | Current Version | Previous Version | Text Only | Print | Product List | Glossary On
Versions: 1 2 3 4 5 6 7 8 9 10 11 12 13 14 15 16 17 18 19 20 21 22 23 24 25 26 27 28 29 30 31 32 33 34 35 36 37 38 39 40 41 42 43 44 45 46 47 48 49 50
000
ASUS41 KGYX 221810
RWRGYX
WEATHER ROUNDUP FOR MAINE AND NEW HAMPSHIRE
NATIONAL WEATHER SERVICE GRAY ME
200 PM EDT TUE JUL 22 2014

MEZ002-005-006-010-012-015-018-020-021-024-026-027-029-221900-
MAINE

CITY           SKY/WX    TMP DP  RH WIND       PRES   REMARKS
PORTLAND       MOSUNNY   78  64  61 S10       30.05F
6HR MIN TEMP:  67; 6HR MAX TEMP:  82;

SANFORD        MOSUNNY   90  64  43 SW10      30.05F HX  91
BAR HARBOR     SUNNY     75  66  73 S13       30.06F
WISCASSET      SUNNY     79  65  62 S7        30.07F
6HR MIN TEMP:  67; 6HR MAX TEMP:  79;

ROCKLAND       SUNNY     72  66  83 S9        30.07R
FRYEBURG       PTSUNNY   87  66  49 CALM      30.04F
6HR MIN TEMP:  68; 6HR MAX TEMP:  88;

LEWISTONAUBURN MOSUNNY   84  66  54 SW9       30.06S
AUGUSTA        MOSUNNY   82  66  58 VRB6      30.06S
6HR MIN TEMP:  65; 6HR MAX TEMP:  83;

WATERVILLE     MOSUNNY   82  66  57 S5        30.00S
BANGOR         MOSUNNY   84  67  56 S12       30.03F
6HR MIN TEMP:  67; 6HR MAX TEMP:  84;

GREENVILLE       N/A     81  61  50 VRB5      30.04F
6HR MIN TEMP:  69; 6HR MAX TEMP:  82;

MILLINOCKET    MOSUNNY   85  62  46 VRB6      30.02F
6HR MIN TEMP:  69; 6HR MAX TEMP:  86;

HOULTON        PTSUNNY   85  63  47 SW12      29.98F
6HR MIN TEMP:  69; 6HR MAX TEMP:  85;

PRESQUE ISLE   PTSUNNY   82  59  44 SW10      29.97F
6HR MIN TEMP:  70; 6HR MAX TEMP:  84;

FRENCHVILLE    MOSUNNY   81  59  47 SW13G22   29.95F
6HR MIN TEMP:  67; 6HR MAX TEMP:  82;

CARIBOU        PTSUNNY   84  63  49 W10       29.95F
6HR MIN TEMP:  68; 6HR MAX TEMP:  85;

$$

NHZ002-005-008-009-011-012-014-221900-
NEW HAMPSHIRE

CITY           SKY/WX    TMP DP  RH WIND       PRES   REMARKS
PORTSMOUTH     MOSUNNY   83  68  59 SE12      30.05F
ROCHESTER      MOSUNNY   87  62  43 VRB3      30.05F
6HR MIN TEMP:  66; 6HR MAX TEMP:  88;

NASHUA         SUNNY     89  64  43 VRB5      30.06F HX  90
MANCHESTER     MOSUNNY   86  64  47 VRB3      30.04F
6HR MIN TEMP:  69; 6HR MAX TEMP:  87;

CONCORD        MOSUNNY   85  65  51 CALM      30.05F
6HR MIN TEMP:  66; 6HR MAX TEMP:  87;

LACONIA        MOSUNNY   82  64  54 SW10      30.05S
PLYMOUTH       FAIR      85  64  50 SW8       30.04F
BERLIN         MOSUNNY   86  61  42 NW8       30.08S
6HR MIN TEMP:  63; 6HR MAX TEMP:  86;

WHITEFIELD     MOSUNNY   83  63  50 W8        30.07F
6HR MIN TEMP:  66; 6HR MAX TEMP:  84;

JAFFREY        MOSUNNY   84  62  47 W7        30.11F
6HR MIN TEMP:  67; 6HR MAX TEMP:  85;

LEBANON        MOSUNNY   85  66  53 S5        30.05F
6HR MIN TEMP:  64; 6HR MAX TEMP:  85; 6HR PCP:  0.01;

MT WASHINGTON  PTSUNNY   59  50  72 W24         N/A
6HR MIN TEMP:  51; 6HR MAX TEMP:  59;

$$

VTZ005-007-008-221900-
VERMONT

CITY           SKY/WX    TMP DP  RH WIND       PRES   REMARKS
ST JOHNSBURY     N/A     84  59  42 MISG      30.03F
MONTPELIER     MOSUNNY   81  62  52 VRB3      30.11F
BURLINGTON     PTSUNNY   87  64  46 S8        30.03F
$$

MAZ007-012-024-CTZ003-RIZ002-NYZ038-NYZ072-221900-
SOUTHERN NEW ENGLAND AND NY

CITY           SKY/WX    TMP DP  RH WIND       PRES   REMARKS
BOSTON         MOSUNNY   78  66  66 E13       30.07F
WORCESTER      SUNNY     83  61  47 SW7       30.13F
NANTUCKET      SUNNY     72  65  78 S10       30.14F
PROVIDENCE     MOSUNNY   84  70  62 S14       30.10F
HARTFORD       MOSUNNY   89  63  41 S8        30.07F HX  90
ALBANY         MOSUNNY   86  68  54 S7        30.06F
NEW YORK CITY  PTSUNNY   85  65  51 S12G17    30.11S
$$

ANZ081-ANZ082-ANZ150-NHZ014-MEZ023>029-221900-
COASTAL MARINE OBSERVATIONS

STATION/POSITION TIME  TEMP    WIND        PRES    WAVE
                       AIR SEA DIR/SP/G            HT/PER
                 (UTC) (F)     (DEG/KT/KT) (MB)    (FT/S)
MOUNT DESERT ROC 1800   60                 1018.7F
MATINICUS ROCK   1700          190/ 14/ 15 1018.5F
PORTLAND WX BUOY 1800   66 65  170/ 10/ 12 1017.7F   2/ 8
WELLS            1800   68 64  180/ 16/ 19 1017.1F
ISLE OF SHOALS   1700   71     160/ 13/ 13 1018.4F
JEFFREYS LEDGE   1800      67                N/A     2/ 7
CASHES LEDGE BUO 1800   67 66  VRB 12/ 14  1018.3F   2/ 7
$$

.............KEY..............
   WCI - WIND CHILL
   TC  - TEMPERATURE IN CELSIUS
   VSB - VISIBILITY IN MILES
   HX  - HEAT INDEX
   FAIR- INDICATES FEW OR NO CLOUDS BELOW 12,000 FT, WITH NO
         SIGNIFICANT WEATHER AND/OR OBSTRUCTIONS TO VISIBILITY.




USA.gov is the U.S. government's official web portal to all federal, state and local government web resources and services.